Latest Weather Observations for Roxby Downs

IDS60801

Issued at 11:35 am CST Saturday 19 April 2014 (issued every 30 minutes, with the page automatically refreshed every 10 minutes)

About weather observations | Map of weather stations | Latest weather observations for SA | Other Formats
Station Details ID: 016096 Name: OLYMPIC DAM AERODROME Lat: -30.48 Lon: 136.88 Height: 98.5 m
Data from the previous 72 hours. | See also: Recent months at Roxby Downs
Date/Time
CST
Temp
°C
App
Temp
°C
Dew
Point
Rel
Hum
%
Delta-T
°C
Wind Press
QNH
hPa
Press
MSL
hPa
Rain
since 9 am
mm
Dir
 
Spd
km/h
Gust
km/h
Spd
kts
Gust
kts
19/11:30am 24.5 21.3 11.1 43 7.5 N 19 28 10 15 1020.7 - 0.0
19/11:00am 23.2 19.9 10.9 46 6.8 N 19 30 10 16 1021.1 - 0.0
19/10:30am 22.9 19.7 11.3 48 6.5 N 19 26 10 14 1021.3 - 0.0
19/10:00am 22.4 19.6 11.5 50 6.1 NNE 17 22 9 12 1021.5 - 0.0
19/09:30am 21.6 18.6 10.7 50 6.0 NE 17 20 9 11 1021.7 - 0.0
19/09:00am 20.7 17.8 11.1 54 5.3 NE 17 22 9 12 1021.8 1021.6 0.0
19/08:30am 19.6 18.0 11.4 59 4.5 E 11 15 6 8 1021.8 - 0.0
19/08:00am 17.5 15.8 11.1 66 3.5 E 11 15 6 8 1021.5 - 0.0
19/07:30am 15.3 15.7 11.1 76 2.3 CALM 0 0 0 0 1021.3 - 0.0
19/07:00am 12.9 13.0 10.3 84 1.4 CALM 0 0 0 0 1021.2 - 0.0
19/06:30am 13.5 12.9 10.3 81 1.7 SE 4 6 2 3 1021.1 - 0.0
19/06:00am 14.2 12.7 10.6 79 1.9 SSE 9 11 5 6 1020.8 1020.6 0.0
19/05:30am 14.5 12.7 10.7 78 2.0 SSE 11 13 6 7 1020.7 - 0.0
19/05:00am 14.6 12.8 10.8 78 2.0 SSE 11 13 6 7 1020.3 - 0.0
19/04:30am 14.6 12.8 11.0 79 1.9 SSE 11 13 6 7 1020.2 - 0.0
19/04:00am 14.6 12.8 11.0 79 1.9 SSE 11 11 6 6 1020.2 - 0.0
19/03:30am 14.9 13.6 11.1 78 2.0 SSE 9 11 5 6 1020.1 - 0.0
19/03:00am 15.2 13.9 11.2 77 2.1 SSE 9 11 5 6 1020.2 1020.0 0.0
19/02:30am 15.7 14.4 11.1 74 2.5 SSE 9 11 5 6 1020.4 - 0.0
19/02:00am 16.6 14.9 11.3 71 2.9 SE 11 13 6 7 1020.6 - 0.0
19/01:30am 17.4 15.8 11.4 68 3.3 SE 11 15 6 8 1020.8 - 0.0
19/01:00am 17.6 16.4 11.6 68 3.3 ESE 9 13 5 7 1021.0 - 0.0
19/12:30am 18.1 17.1 12.3 69 3.2 ESE 9 15 5 8 1021.0 - 0.0
19/12:00am 18.5 17.4 12.0 66 3.6 ESE 9 13 5 7 1021.0 1020.8 0.0
 
Date/Time
CST
Temp
°C
App
Temp
°C
Dew
Point
Rel
Hum
%
Delta-T
°C
Wind Press
QNH
hPa
Press
MSL
hPa
Rain
since 9 am
mm
Dir
 
Spd
km/h
Gust
km/h
Spd
kts
Gust
kts
18/11:30pm 19.2 17.2 11.5 61 4.2 E 13 17 7 9 1021.1 - 0.0
18/11:00pm 19.8 17.3 11.0 57 4.8 ESE 15 19 8 10 1021.1 - 0.0
18/10:30pm 20.2 18.1 11.1 56 5.0 E 13 20 7 11 1021.3 - 0.0
18/10:00pm 19.1 17.8 10.1 56 4.8 ENE 7 9 4 5 1021.3 - 0.0
18/09:30pm 19.5 18.0 10.5 56 4.9 SE 9 11 5 6 1021.3 - 0.0
18/09:00pm 19.4 17.9 10.7 57 4.7 SE 9 9 5 5 1021.2 1021.0 0.0
18/08:30pm 20.3 19.1 10.4 53 5.4 SE 7 9 4 5 1021.1 - 0.0
18/08:00pm 21.3 19.8 10.5 50 5.9 SE 9 9 5 5 1021.0 - 0.0
18/07:30pm 21.9 20.4 10.7 49 6.2 SSE 9 11 5 6 1020.8 - 0.0
18/07:00pm 22.8 21.3 10.6 46 6.7 SSE 9 11 5 6 1020.6 - 0.0
18/06:30pm 23.6 22.5 10.6 44 7.2 SSE 7 9 4 5 1020.3 - 0.0
18/06:00pm 25.3 23.3 10.0 38 8.5 S 11 15 6 8 1020.0 1019.8 0.0
18/05:30pm 26.4 23.9 9.7 35 9.3 S 13 19 7 10 1019.9 - 0.0
18/05:00pm 27.0 23.8 9.8 34 9.6 S 17 24 9 13 1019.8 - 0.0
18/04:30pm 27.1 24.3 9.9 34 9.6 S 15 22 8 12 1019.7 - 0.0
18/04:00pm 27.6 24.8 9.9 33 9.9 SSW 15 26 8 14 1019.6 - 0.0
18/03:30pm 28.2 25.8 9.9 32 10.3 SSW 13 22 7 12 1019.6 - 0.0
18/03:00pm 28.1 25.5 9.4 31 10.4 S 13 24 7 13 1019.8 1019.6 0.0
18/02:30pm 28.0 25.9 9.8 32 10.2 WSW 11 17 6 9 1019.8 - 0.0
18/02:00pm 28.0 25.4 9.3 31 10.4 SSW 13 19 7 10 1020.0 - 0.0
18/01:30pm 27.6 26.2 9.0 31 10.3 E 6 9 3 5 1020.2 - 0.0
18/01:00pm 27.4 25.3 9.7 33 9.9 S 11 17 6 9 1020.5 - 0.0
18/12:30pm 27.0 26.1 9.4 33 9.7 SW 4 13 2 7 1021.0 - 0.0
18/12:00pm 26.9 25.7 9.7 34 9.5 S 6 13 3 7 1021.6 1021.4 0.0
18/11:30am 26.8 25.7 10.1 35 9.3 E 6 13 3 7 1022.0 - 0.0
18/11:00am 26.1 24.8 9.9 36 9.0 E 7 13 4 7 1022.0 - 0.0
18/10:30am 25.2 22.9 10.3 39 8.3 E 13 19 7 10 1022.2 - 0.0
18/10:00am 24.4 22.6 11.0 43 7.5 E 11 17 6 9 1022.3 - 0.0
18/09:30am 23.5 20.3 11.2 46 6.9 SE 19 26 10 14 1022.6 - 0.0
18/09:00am 21.6 18.2 10.7 50 6.0 SSE 19 28 10 15 1023.0 1022.8 0.0
18/08:30am 20.1 18.8 11.3 57 4.9 SSE 9 11 5 6 1022.7 - 0.0
18/08:00am 18.1 18.3 10.7 62 4.0 CALM 0 0 0 0 1022.0 - 0.0
18/07:30am 15.3 14.6 9.9 70 2.8 S 4 9 2 5 1021.8 - 0.0
18/07:00am 13.7 12.0 9.7 77 2.1 NNE 9 11 5 6 1021.3 - 0.0
18/06:30am 12.9 12.9 9.7 81 1.6 CALM 0 0 0 0 1021.3 - 0.0
18/06:00am 12.1 12.1 9.8 86 1.2 CALM 0 0 0 0 1021.2 1021.0 0.0
18/05:30am 12.5 12.4 9.5 82 1.5 CALM 0 0 0 0 1020.9 - 0.0
18/05:00am 12.7 11.3 9.7 82 1.5 S 7 9 4 5 1020.8 - 0.0
18/04:30am 13.2 11.8 9.6 79 1.8 SW 7 9 4 5 1020.7 - 0.0
18/04:00am 14.1 12.7 9.5 74 2.4 SSW 7 9 4 5 1020.5 - 0.0
18/03:30am 13.9 12.4 9.1 73 2.4 SW 7 9 4 5 1020.4 - 0.0
18/03:00am 14.3 14.2 9.5 73 2.5 CALM 0 0 0 0 1020.4 1020.2 0.0
18/02:30am 13.8 13.7 9.3 74 2.3 CALM 0 0 0 0 1020.5 - 0.0
18/02:00am 14.6 14.4 9.2 70 2.8 CALM 0 0 0 0 1020.7 - 0.0
18/01:30am 14.4 14.0 9.6 73 2.5 SW 2 9 1 5 1020.8 - 0.0
18/01:00am 14.4 14.3 9.4 72 2.6 CALM 0 0 0 0 1020.7 - 0.0
18/12:30am 14.7 14.6 9.5 71 2.7 CALM 0 0 0 0 1020.7 - 0.0
18/12:00am 15.3 15.3 9.9 70 2.8 CALM 0 0 0 0 1020.7 1020.5 0.0
 
Date/Time
CST
Temp
°C
App
Temp
°C
Dew
Point
Rel
Hum
%
Delta-T
°C
Wind Press
QNH
hPa
Press
MSL
hPa
Rain
since 9 am
mm
Dir
 
Spd
km/h
Gust
km/h
Spd
kts
Gust
kts
17/11:30pm 16.7 15.5 10.3 66 3.4 NNE 7 9 4 5 1021.0 - 0.0
17/11:00pm 18.2 16.5 8.5 53 5.0 NNE 7 9 4 5 1021.1 - 0.0
17/10:30pm 19.0 16.7 8.9 52 5.3 NNE 11 13 6 7 1021.3 - 0.0
17/10:00pm 19.1 16.9 9.3 53 5.2 N 11 13 6 7 1021.3 - 0.0
17/09:30pm 16.7 14.9 9.6 63 3.7 NE 9 11 5 6 1021.2 - 0.0
17/09:00pm 17.3 15.7 10.2 63 3.8 NE 9 9 5 5 1021.2 1021.0 0.0
17/08:30pm 18.6 17.7 9.4 55 4.9 ESE 4 11 2 6 1021.1 - 0.0
17/08:00pm 18.3 18.1 9.1 55 4.8 CALM 0 0 0 0 1020.8 - 0.0
17/07:30pm 19.2 19.1 9.4 53 5.2 CALM 0 0 0 0 1020.5 - 0.0
17/07:00pm 20.8 20.8 9.7 49 6.0 CALM 0 6 0 3 1020.2 - 0.0
17/06:30pm 23.0 21.6 9.0 41 7.5 SSE 6 7 3 4 1020.0 - 0.0
17/06:00pm 25.7 23.5 6.3 29 10.1 S 7 9 4 5 1019.7 1019.5 0.0
17/05:30pm 27.4 24.3 5.6 25 11.3 SSW 11 15 6 8 1019.5 - 0.0
17/05:00pm 28.1 24.6 5.6 24 11.7 S 13 17 7 9 1019.3 - 0.0
17/04:30pm 28.3 25.1 5.2 23 12.0 SSW 11 15 6 8 1019.3 - 0.0
17/04:00pm 28.4 25.2 5.3 23 12.0 WNW 11 17 6 9 1019.5 - 0.0
17/03:30pm 28.7 25.5 4.9 22 12.3 SW 11 17 6 9 1019.5 - 0.0
17/03:00pm 28.5 25.4 5.4 23 12.0 WSW 11 19 6 10 1019.7 1019.5 0.0
17/02:30pm 28.5 26.3 6.0 24 11.9 WSW 7 11 4 6 1019.8 - 0.0
17/02:00pm 27.5 25.1 5.1 24 11.5 SE 7 13 4 7 1019.9 - 0.0
17/01:30pm 27.3 25.1 6.1 26 11.1 S 7 11 4 6 1020.3 - 0.0
17/01:00pm 27.0 24.1 6.4 27 10.8 SSW 11 15 6 8 1020.7 - 0.0
17/12:30pm 26.5 24.1 7.0 29 10.3 N 9 17 5 9 1021.3 - 0.0
17/12:00pm 26.4 24.5 7.4 30 10.1 W 7 15 4 8 1021.9 1021.7 0.0
17/11:30am 25.4 23.3 6.6 30 9.8 NW 7 13 4 7 1022.3 - 0.0
17/11:00am 25.3 24.1 6.5 30 9.8 NNW 2 7 1 4 1022.5 - 0.0
17/10:30am 24.5 22.7 7.2 33 9.1 NW 6 11 3 6 1022.6 - 0.0
17/10:00am 23.6 21.8 7.3 35 8.5 NW 6 9 3 5 1022.7 - 0.0
17/09:30am 22.9 21.9 7.4 37 8.1 NNE 2 9 1 5 1022.6 - 0.0
17/09:00am 21.6 21.3 8.8 44 6.8 CALM 0 0 0 0 1022.5 1022.3 0.0
17/08:30am 18.8 18.7 9.3 54 5.0 CALM 0 0 0 0 1022.2 - 0.0
17/08:00am 16.2 16.0 9.2 63 3.6 CALM 0 0 0 0 1021.9 - 0.0
17/07:30am 13.3 13.1 9.0 75 2.2 CALM 0 0 0 0 1021.7 - 0.0
17/07:00am 11.4 10.7 8.4 82 1.5 W 2 6 1 3 1021.3 - 0.0
17/06:30am 11.2 9.6 8.2 82 1.5 WSW 6 9 3 5 1021.1 - 0.0
17/06:00am 11.4 9.8 8.6 83 1.4 ENE 7 7 4 4 1020.8 1020.6 0.0
17/05:30am 11.5 10.1 8.7 83 1.4 SSE 6 7 3 4 1020.5 - 0.0
17/05:00am 12.0 10.4 8.1 77 1.9 S 6 7 3 4 1020.4 - 0.0
17/04:30am 12.2 10.6 8.7 79 1.8 S 7 13 4 7 1020.2 - 0.0
17/04:00am 11.6 11.4 9.2 85 1.2 CALM 0 0 0 0 1020.0 - 0.0
17/03:30am 12.0 10.6 9.0 82 1.5 E 6 7 3 4 1019.9 - 0.0
17/03:00am 11.6 11.5 9.3 86 1.2 CALM 0 0 0 0 1019.8 1019.6 0.0
17/02:30am 11.7 11.5 8.9 83 1.4 CALM 0 0 0 0 1019.9 - 0.0
17/02:00am 12.0 11.9 9.6 85 1.2 CALM 0 0 0 0 1020.1 - 0.0
17/01:30am 12.1 12.0 9.3 83 1.4 CALM 0 0 0 0 1020.3 - 0.0
17/01:00am 12.3 12.2 9.5 83 1.4 CALM 0 0 0 0 1020.4 - 0.0
17/12:30am 12.6 12.4 9.1 79 1.8 CALM 0 0 0 0 1020.5 - 0.0
17/12:00am 12.8 12.7 9.4 80 1.7 CALM 0 0 0 0 1020.7 1020.5 0.0
 
Date/Time
CST
Temp
°C
App
Temp
°C
Dew
Point
Rel
Hum
%
Delta-T
°C
Wind Press
QNH
hPa
Press
MSL
hPa
Rain
since 9 am
mm
Dir
 
Spd
km/h
Gust
km/h
Spd
kts
Gust
kts
16/11:30pm 13.0 12.9 9.3 78 1.9 CALM 0 0 0 0 1020.7 - 0.0
16/11:00pm 13.0 12.9 9.3 78 1.9 CALM 0 0 0 0 1021.0 - 0.0
16/10:30pm 13.5 13.4 9.4 76 2.1 CALM 0 0 0 0 1021.1 - 0.0
16/10:00pm 14.0 13.8 9.0 72 2.5 CALM 0 0 0 0 1021.2 - 0.0
16/09:30pm 14.7 14.6 9.3 70 2.8 CALM 0 0 0 0 1021.0 - 0.0
16/09:00pm 15.7 14.4 9.1 65 3.4 SE 6 6 3 3 1020.8 1020.6 0.0
16/08:30pm 17.3 15.6 8.4 56 4.6 S 7 9 4 5 1020.6 - 0.0
16/08:00pm 18.8 16.8 6.9 46 6.0 S 7 9 4 5 1020.4 - 0.0
16/07:30pm 19.1 17.2 9.0 52 5.3 S 9 9 5 5 1020.1 - 0.0
16/07:00pm 20.8 18.3 6.4 39 7.3 S 9 11 5 6 1019.9 - 0.0
16/06:30pm 21.8 19.1 5.7 35 8.1 SSW 9 9 5 5 1019.5 - 0.0
16/06:00pm 23.6 19.9 4.5 29 9.5 SSW 13 15 7 8 1019.3 1019.1 0.0
16/05:30pm 24.8 21.0 4.0 26 10.3 SSW 13 20 7 11 1019.0 - 0.0
16/05:00pm 25.6 22.2 4.1 25 10.8 SW 11 17 6 9 1018.7 - 0.0
16/04:30pm 25.9 21.9 4.9 26 10.7 S 15 24 8 13 1018.6 - 0.0
16/04:00pm 26.2 22.3 5.2 26 10.8 SW 15 24 8 13 1018.6 - 0.0
16/03:30pm 26.3 21.6 5.3 26 10.8 S 19 24 10 13 1018.5 - 0.0
16/03:00pm 26.0 22.0 5.0 26 10.7 WSW 15 26 8 14 1018.7 1018.5 0.0
16/02:30pm 26.0 22.3 6.1 28 10.3 S 15 20 8 11 1018.9 - 0.0
16/02:00pm 25.6 22.2 5.8 28 10.2 WSW 13 24 7 13 1019.1 - 0.0
16/01:30pm 25.4 22.4 6.1 29 10.0 WSW 11 22 6 12 1019.4 - 0.0
16/01:00pm 25.1 22.2 6.3 30 9.8 W 11 19 6 10 1020.1 - 0.0
16/12:30pm 24.6 21.8 6.8 32 9.3 SW 11 20 6 11 1020.6 - 0.0
16/12:00pm 23.8 20.3 7.4 35 8.6 WSW 15 24 8 13 1021.1 1020.9 0.0

Other Formats:

Comma delimited format used in spreadsheet applications
http://www.bom.gov.au/fwo/IDS60801/IDS60801.95658.axf

JavaScript Object Notation format (JSON) in row-major order
http://www.bom.gov.au/fwo/IDS60801/IDS60801.95658.json